CW4320 Weather Reports


Display with metric or nautical units.
time (UTC)temp
F
wind
direction
speed
MPH
gust
MPH
rain 1hr
in
rain 24hr
in
rain mn
in
humidity
%
barometer
mb
20260508005036 55 120 2.0 4.0 0.00 0.02 0.00 80 1009.0
20260508004524 55 120 3.0 4.0 0.00 0.02 0.00 80 1009.0
20260508004034 55 113 2.0 4.0 0.00 0.02 0.00 80 1009.1
20260508003030 54 103 2.0 4.0 0.00 0.02 0.00 80 1009.1
20260508002521 55 109 3.0 4.0 0.00 0.02 0.00 80 1009.2
20260508002027 55 122 2.0 4.0 0.00 0.02 0.00 80 1009.2
20260508001536 55 121 2.0 4.0 0.00 0.02 0.00 80 1009.2
20260508001022 55 117 3.0 4.0 0.00 0.02 0.00 80 1009.2
20260508000029 55 106 1.0 4.0 0.00 0.02 0.00 80 1009.2
20260507235026 55 105 1.0 4.0 0.00 0.02 0.02 80 1009.3
20260507234534 55 105 2.0 4.0 0.00 0.02 0.02 80 1009.3
20260507234022 55 116 0.0 3.0 0.00 0.02 0.02 80 1009.3
20260507233530 56 115 1.0 3.0 0.00 0.02 0.02 80 1009.3
20260507233035 56 116 1.0 3.0 0.00 0.02 0.02 80 1009.3
20260507232524 56 116 2.0 4.0 0.00 0.02 0.02 80 1009.4
20260507231521 56 115 1.0 4.0 0.00 0.02 0.02 80 1009.4
20260507231026 56 125 2.0 4.0 0.00 0.02 0.02 80 1009.5
20260507230547 56 122 3.0 4.0 0.00 0.02 0.02 80 1009.5
20260507225520 57 115 3.0 7.0 0.00 0.02 0.02 80 1009.5
20260507225026 57 148 3.0 6.0 0.00 0.02 0.02 80 1009.5
20260507224537 57 100 3.0 6.0 0.00 0.02 0.02 80 1009.5
20260507224020 57 117 5.0 6.0 0.00 0.02 0.02 80 1009.8
20260507223529 57 117 3.0 6.0 0.00 0.02 0.02 80 1009.8
20260507223036 56 120 3.0 5.0 0.00 0.02 0.02 80 1009.8
20260507222526 56 103 2.0 3.0 0.00 0.02 0.02 80 1010.0
20260507222032 56 122 1.0 3.0 0.00 0.02 0.02 80 1010.0
20260507221027 57 219 0.0 2.0 0.00 0.02 0.02 80 1010.1
20260507220547 57 220 1.0 2.0 0.00 0.02 0.02 80 1010.1
20260507220029 58 220 0.0 1.0 0.00 0.02 0.02 80 1010.1
20260507215523 58 219 0.0 0.0 0.00 0.02 0.02 80 1010.2
20260507215030 58 219 0.0 2.0 0.00 0.02 0.02 80 1010.2
20260507214536 58 219 0.0 3.0 0.00 0.02 0.02 80 1010.2
20260507214039 58 219 2.0 4.0 0.00 0.02 0.02 80 1010.2
20260507213526 59 220 2.0 4.0 0.00 0.02 0.02 80 1010.3
20260507213032 59 229 2.0 5.0 0.00 0.02 0.02 80 1010.3
20260507212538 59 229 2.0 5.0 0.00 0.02 0.02 80 1010.0
20260507212025 59 240 4.0 5.0 0.00 0.02 0.02 80 1010.0
20260507211532 59 103 1.0 4.0 0.00 0.02 0.02 80 1010.0
20260507211036 59 78 2.0 4.0 0.00 0.02 0.02 80 1009.9
20260507210556 59 113 2.0 4.0 0.00 0.02 0.02 80 1009.9
20260507210022 59 51 1.0 3.0 0.00 0.02 0.02 80 1009.9
20260507204528 59 51 0.0 5.0 0.00 0.02 0.02 80 1009.7
20260507204034 59 51 3.0 6.0 0.00 0.02 0.02 80 1009.5
20260507203522 59 40 5.0 6.0 0.00 0.02 0.02 80 1009.5
20260507203029 59 30 3.0 5.0 0.00 0.02 0.02 80 1009.5
20260507202538 59 19 1.0 4.0 0.00 0.02 0.02 80 1009.4
20260507202024 59 19 2.0 6.0 0.00 0.02 0.02 80 1009.4
20260507201037 60 21 3.0 4.0 0.00 0.02 0.02 80 1009.2
20260507200559 60 21 0.0 2.0 0.00 0.02 0.02 80 1009.2
20260507200027 60 21 0.0 4.0 0.00 0.02 0.02 80 1009.2
20260507195535 60 352 2.0 4.0 0.00 0.02 0.02 80 1008.9
20260507195036 60 352 2.0 4.0 0.00 0.02 0.02 80 1008.9
20260507194523 60 352 3.0 4.0 0.00 0.02 0.02 80 1008.9
20260507193539 61 352 1.0 2.0 0.00 0.02 0.02 80 1008.8
20260507192532 61 352 0.0 2.0 0.00 0.02 0.02 80 1008.9
20260507192037 61 352 0.0 2.0 0.00 0.02 0.02 80 1008.9
20260507191525 61 352 1.0 3.0 0.00 0.02 0.02 80 1008.9
20260507190023 62 144 1.0 3.0 0.00 0.02 0.02 80 1008.8
20260507185040 62 144 0.0 4.0 0.00 0.02 0.02 80 1008.5
20260507184529 63 144 2.0 5.0 0.00 0.02 0.02 80 1008.5
20260507184034 63 138 1.0 10.0 0.00 0.02 0.02 80 1008.4
20260507183523 63 151 3.0 10.0 0.00 0.02 0.02 80 1008.4
20260507183030 63 143 5.0 10.0 0.01 0.02 0.02 80 1008.4
20260507182538 62 201 6.0 14.0 0.02 0.02 0.02 80 1008.4
20260507182024 62 139 8.0 14.0 0.02 0.02 0.02 80 1008.4
20260507181532 62 179 6.0 13.0 0.02 0.02 0.02 80 1008.4
20260507181034 63 177 3.0 7.0 0.02 0.02 0.02 80 1008.4
20260507180600 63 187 2.0 7.0 0.02 0.02 0.02 80 1008.4
20260507180023 63 120 0.0 5.0 0.02 0.02 0.02 80 1008.4
20260507174529 63 129 5.0 9.0 0.02 0.02 0.02 80 1008.5
20260507174033 63 86 5.0 10.0 0.02 0.02 0.02 80 1008.9
20260507173521 63 138 5.0 11.0 0.02 0.02 0.02 80 1008.9
20260507173028 63 124 6.0 11.0 0.02 0.02 0.02 80 1008.9
20260507172536 63 99 6.0 11.0 0.01 0.01 0.01 80 1008.9
20260507172022 63 103 7.0 11.0 0.00 0.00 0.00 80 1008.9
20260507171036 63 96 4.0 5.0 0.00 0.00 0.00 80 1009.0
20260507170600 63 24 3.0 4.0 0.00 0.00 0.00 80 1009.0
20260507170041 64 234 0.0 2.0 0.00 0.00 0.00 80 1009.0
20260507165523 64 235 1.0 4.0 0.00 0.00 0.00 80 1009.0
20260507165029 64 234 1.0 4.0 0.00 0.00 0.00 80 1009.0
20260507164026 63 115 1.0 6.0 0.00 0.00 0.00 80 1008.7
20260507163535 63 107 4.0 6.0 0.00 0.00 0.00 80 1008.7
20260507163020 63 105 3.0 10.0 0.00 0.00 0.00 80 1008.7
20260507162530 63 109 5.0 11.0 0.00 0.00 0.00 80 1008.6
20260507162036 64 52 6.0 13.0 0.00 0.00 0.00 80 1008.6
20260507161529 64 63 10.0 13.0 0.00 0.00 0.00 80 1008.6
20260507161024 64 96 8.0 11.0 0.00 0.00 0.00 80 1008.5
20260507160545 64 88 3.0 11.0 0.00 0.00 0.00 80 1008.5
20260507160029 64 146 3.0 11.0 0.00 0.00 0.00 80 1008.5
20260507155535 64 88 6.0 11.0 0.00 0.00 0.00 80 1008.4
20260507154526 63 51 8.0 17.0 0.00 0.00 0.00 80 1008.4
20260507154032 62 66 10.0 17.0 0.00 0.00 0.00 80 1008.4
20260507153521 62 98 9.0 16.0 0.00 0.00 0.00 80 1008.4
20260507153028 62 68 13.0 16.0 0.00 0.00 0.00 80 1008.4
20260507152536 61 57 9.0 16.0 0.00 0.00 0.00 80 1008.8
20260507152029 61 63 11.0 17.0 0.00 0.00 0.00 80 1008.8
20260507151537 61 70 10.0 20.0 0.00 0.00 0.00 80 1008.8
20260507150544 61 63 8.0 18.0 0.00 0.00 0.00 80 1009.0
20260507150026 60 47 11.0 15.0 0.00 0.00 0.00 80 1008.9
20260507145535 60 57 10.0 13.0 0.00 0.00 0.00 80 1008.9
20260507145036 60 48 9.0 13.0 0.00 0.00 0.00 80 1008.9
20260507144523 60 36 9.0 13.0 0.00 0.00 0.00 80 1008.9
20260507144028 60 33 7.0 16.0 0.00 0.00 0.00 80 1009.0
20260507143537 61 56 9.0 16.0 0.00 0.00 0.00 80 1009.0
20260507143025 61 37 10.0 14.0 0.00 0.00 0.00 80 1009.0
20260507142537 61 13 11.0 15.0 0.00 0.00 0.00 80 1008.9
20260507142023 61 10 13.0 15.0 0.00 0.00 0.00 80 1008.9
20260507141530 62 360 7.0 15.0 0.00 0.00 0.00 80 1008.9
20260507141037 62 12 8.0 14.0 0.00 0.00 0.00 80 1008.9
20260507140558 62 360 12.0 14.0 0.00 0.00 0.00 80 1008.9
20260507140037 63 44 8.0 15.0 0.00 0.00 0.00 80 1008.9
20260507135524 63 58 10.0 15.0 0.00 0.00 0.00 80 1008.9
20260507135029 63 45 9.0 15.0 0.00 0.00 0.00 80 1008.9
20260507134538 63 38 11.0 20.0 0.00 0.00 0.00 80 1008.9
20260507134024 63 27 11.0 20.0 0.00 0.00 0.00 80 1008.8
20260507133535 64 21 12.0 18.0 0.00 0.00 0.00 73 1008.8
20260507133039 65 15 11.0 15.0 0.00 0.00 0.00 74 1008.8
20260507132527 65 41 9.0 16.0 0.00 0.00 0.00 80 1008.9
20260507132032 63 24 10.0 16.0 0.00 0.00 0.00 80 1008.9
20260507131539 62 25 10.0 16.0 0.00 0.00 0.00 76 1008.9
20260507131025 62 45 12.0 18.0 0.00 0.00 0.00 70 1008.9
20260507130547 63 44 11.0 18.0 0.00 0.00 0.00 67 1008.9
20260507130031 63 46 13.0 19.0 0.00 0.00 0.00 69 1008.9
20260507125537 63 32 11.0 21.0 0.00 0.00 0.00 64 1009.2
20260507125023 65 48 16.0 21.0 0.00 0.00 0.00 61 1009.2
20260507124537 66 27 13.0 18.0 0.00 0.00 0.00 64 1009.2
20260507123532 66 49 15.0 18.0 0.00 0.00 0.00 69 1009.1
20260507123038 66 28 12.0 20.0 0.00 0.00 0.00 67 1009.1
20260507122524 66 30 15.0 20.0 0.00 0.00 0.00 62 1009.5
20260507122029 66 34 13.0 19.0 0.00 0.00 0.00 70 1009.5
20260507121538 66 29 13.0 17.0 0.00 0.00 0.00 65 1009.5
20260507120545 66 38 10.0 19.0 0.00 0.00 0.00 67 1009.6
20260507120028 66 35 13.0 19.0 0.00 0.00 0.00 63 1009.6
20260507115535 66 32 14.0 17.0 0.00 0.00 0.00 64 1009.9
20260507115026 66 1 13.0 17.0 0.00 0.00 0.00 65 1009.9
20260507114535 66 8 11.0 16.0 0.00 0.00 0.00 59 1009.9
20260507114039 66 10 12.0 16.0 0.00 0.00 0.00 61 1009.9
20260507113527 66 33 11.0 16.0 0.00 0.00 0.00 58 1009.9
20260507113033 66 51 12.0 17.0 0.00 0.00 0.00 60 1009.9
20260507112540 66 39 12.0 17.0 0.00 0.00 0.00 48 1010.1
20260507112026 66 51 12.0 18.0 0.00 0.00 0.00 51 1010.1
20260507111534 66 37 14.0 18.0 0.00 0.00 0.00 51 1010.1
20260507111040 66 39 10.0 18.0 0.00 0.00 0.00 54 1010.1
20260507110601 66 77 12.0 18.0 0.00 0.00 0.00 50 1010.1
20260507110029 66 49 10.0 18.0 0.00 0.00 0.00 52 1010.1
20260507105536 66 65 13.0 18.0 0.00 0.00 0.00 53 1010.4
20260507105040 65 58 11.0 18.0 0.00 0.00 0.00 63 1010.4
20260507104034 65 49 11.0 20.0 0.00 0.00 0.00 59 1010.4
20260507103522 65 68 14.0 17.0 0.00 0.00 0.00 60 1010.4
20260507103028 64 52 10.0 16.0 0.00 0.00 0.00 62 1010.4
20260507102539 64 55 11.0 16.0 0.00 0.00 0.00 61 1010.6
20260507101536 63 66 12.0 17.0 0.00 0.00 0.00 68 1010.6
20260507101021 63 54 13.0 17.0 0.00 0.00 0.00 67 1010.8
20260507100547 63 73 7.0 15.0 0.00 0.00 0.00 70 1010.8
20260507100029 63 84 11.0 18.0 0.00 0.00 0.00 72 1010.8
20260507095536 63 75 11.0 18.0 0.00 0.00 0.00 75 1010.9
20260507095038 63 56 13.0 17.0 0.00 0.02 0.00 76 1010.9
20260507094526 63 57 14.0 17.0 0.00 0.02 0.00 76 1010.9
20260507094030 63 60 12.0 17.0 0.00 0.02 0.00 80 1011.0
20260507093539 62 64 12.0 17.0 0.00 0.02 0.00 80 1011.0
20260507093025 62 65 13.0 17.0 0.00 0.02 0.00 80 1011.0
20260507092532 62 55 12.0 15.0 0.00 0.02 0.00 80 1011.0
20260507092035 60 37 7.0 11.0 0.00 0.02 0.00 80 1011.0
20260507091526 59 66 7.0 13.0 0.00 0.02 0.00 80 1011.0
20260507091031 58 58 9.0 13.0 0.00 0.02 0.00 80 1011.0
20260507090552 58 55 8.0 11.0 0.00 0.02 0.00 80 1011.0
20260507090036 58 42 8.0 11.0 0.00 0.02 0.00 80 1011.0
20260507085524 58 75 7.0 10.0 0.00 0.02 0.00 80 1011.2
20260507085031 58 66 6.0 14.0 0.00 0.03 0.00 80 1011.2
20260507084521 57 84 10.0 14.0 0.00 0.03 0.00 80 1011.2
20260507084026 57 86 7.0 11.0 0.00 0.03 0.00 80 1011.2
20260507083536 57 86 6.0 12.0 0.00 0.03 0.00 80 1011.2
20260507083021 57 65 8.0 12.0 0.00 0.03 0.00 80 1011.2
20260507082021 57 69 10.0 13.0 0.00 0.03 0.00 80 1011.4
20260507081037 56 58 5.0 11.0 0.00 0.03 0.00 80 1011.5
20260507080559 56 72 4.0 11.0 0.00 0.03 0.00 80 1011.5
20260507080021 56 70 4.0 7.0 0.00 0.03 0.00 80 1011.5
20260507075036 55 69 6.0 8.0 0.00 0.03 0.00 80 1011.5
20260507074523 55 113 1.0 5.0 0.00 0.03 0.00 80 1011.5
20260507074030 54 119 2.0 6.0 0.00 0.03 0.00 80 1011.5
20260507073539 54 148 4.0 6.0 0.00 0.03 0.00 80 1011.5
20260507073024 54 147 3.0 4.0 0.00 0.03 0.00 80 1011.5
20260507072539 54 119 2.0 5.0 0.00 0.03 0.00 80 1011.5
20260507072024 53 94 3.0 5.0 0.00 0.03 0.00 80 1011.5
20260507071040 53 106 3.0 5.0 0.00 0.03 0.00 80 1011.5
20260507070602 53 110 3.0 4.0 0.00 0.03 0.00 80 1011.5
20260507070024 53 98 3.0 4.0 0.00 0.03 0.00 80 1011.5
20260507065038 53 82 2.0 5.0 0.00 0.03 0.00 80 1011.5
20260507064527 53 96 3.0 5.0 0.00 0.03 0.00 80 1011.5
20260507063524 52 94 2.0 4.0 0.00 0.03 0.00 80 1011.6
20260507063030 51 94 2.0 3.0 0.00 0.03 0.00 80 1011.6
20260507062033 50 75 3.0 5.0 0.00 0.03 0.00 80 1011.8
20260507061523 50 75 3.0 5.0 0.00 0.03 0.00 80 1011.8
20260507061026 50 117 2.0 3.0 0.00 0.03 0.00 80 1011.8
20260507060548 51 117 1.0 3.0 0.00 0.03 0.00 80 1011.8
20260507060030 51 117 1.0 3.0 0.00 0.03 0.00 80 1011.8
20260507055538 51 117 2.0 3.0 0.00 0.03 0.00 80 1011.8
20260507054533 49 121 2.0 4.0 0.00 0.03 0.00 80 1011.8
20260507053529 49 101 2.0 4.0 0.00 0.03 0.00 80 1011.8
20260507053035 49 115 1.0 4.0 0.00 0.03 0.00 80 1011.8
20260507052527 49 115 2.0 3.0 0.00 0.03 0.00 80 1011.9
20260507052032 48 124 1.0 3.0 0.00 0.03 0.00 80 1011.9
20260507051520 48 130 0.0 3.0 0.00 0.03 0.00 80 1011.9
20260507051027 48 130 1.0 3.0 0.00 0.03 0.00 80 1012.0
20260507050648 48 130 2.0 3.0 0.00 0.03 0.00 80 1012.0
20260507050027 48 130 2.0 3.0 0.00 0.03 0.00 80 1012.0
20260507045538 48 139 1.0 2.0 0.00 0.03 0.00 80 1012.0
20260507045024 48 139 2.0 2.0 0.00 0.03 0.00 80 1012.0
20260507044532 48 137 2.0 2.0 0.00 0.03 0.00 80 1012.0
20260507044035 48 139 1.0 2.0 0.00 0.03 0.00 80 1012.1
20260507043033 48 139 1.0 2.0 0.00 0.03 0.00 80 1012.1
20260507042527 49 139 0.0 2.0 0.00 0.03 0.00 80 1012.1
20260507042031 49 139 1.0 2.0 0.00 0.03 0.00 80 1012.1
20260507041539 49 139 1.0 3.0 0.00 0.03 0.00 80 1012.1
20260507041023 49 139 1.0 4.0 0.00 0.03 0.00 80 1012.4
20260507040544 49 136 2.0 4.0 0.00 0.03 0.00 80 1012.4
20260507040029 49 136 2.0 4.0 0.00 0.03 0.00 80 1012.4
20260507035537 49 144 3.0 4.0 0.00 0.03 0.00 80 1012.5
20260507035023 49 295 1.0 3.0 0.00 0.06 0.00 80 1012.5
20260507034533 49 295 2.0 3.0 0.00 0.06 0.00 80 1012.5
20260507033038 49 295 1.0 3.0 0.00 0.06 0.00 80 1012.4
20260507032527 49 295 1.0 3.0 0.00 0.06 0.00 80 1012.6
20260507032034 49 295 2.0 3.0 0.00 0.06 0.00 80 1012.6
20260507031521 49 295 2.0 3.0 0.00 0.06 0.00 80 1012.6
20260507031028 49 294 1.0 3.0 0.00 0.06 0.00 80 1012.6
20260507030548 49 295 1.0 3.0 0.00 0.06 0.00 80 1012.6
20260507030038 49 295 2.0 3.0 0.00 0.06 0.00 80 1012.6
20260507025024 49 295 1.0 3.0 0.00 0.06 0.00 80 1012.6
20260507024533 49 294 2.0 3.0 0.00 0.06 0.00 80 1012.6
20260507024036 49 294 2.0 3.0 0.00 0.06 0.00 80 1012.7
20260507023524 49 295 1.0 3.0 0.00 0.06 0.00 80 1012.7
20260507023029 49 295 1.0 2.0 0.00 0.06 0.00 80 1012.7
20260507021535 49 295 1.0 3.0 0.00 0.06 0.00 80 1012.8
20260507021038 49 294 2.0 3.0 0.00 0.06 0.00 80 1012.9
20260507020037 49 295 0.0 2.0 0.00 0.06 0.00 80 1012.9
20260507015523 49 295 0.0 2.0 0.00 0.06 0.00 80 1013.0
20260507015025 49 295 1.0 1.0 0.00 0.08 0.00 80 1013.0
20260507014534 50 295 0.0 2.0 0.00 0.08 0.00 80 1013.0
20260507014038 50 295 1.0 2.0 0.00 0.08 0.00 80 1013.0
20260507013526 50 294 0.0 2.0 0.00 0.08 0.00 80 1013.0
20260507013032 50 295 0.0 2.0 0.00 0.08 0.00 80 1013.0
20260507012523 50 294 0.0 1.0 0.00 0.08 0.00 80 1013.1
20260507012028 50 295 0.0 2.0 0.00 0.08 0.00 80 1013.1
20260507011535 50 295 1.0 2.0 0.00 0.08 0.00 80 1013.1
20260507011021 50 295 1.0 3.0 0.00 0.08 0.00 80 1013.1
20260507010603 51 294 0.0 3.0 0.00 0.08 0.00 80 1013.1
20260507010023 51 294 1.0 2.0 0.00 0.08 0.00 80 1013.1
20260507005532 51 295 0.0 0.0 0.00 0.08 0.00 80 1013.2